Flag for Norway Weather past 2 weeks in Egersund, Norway

Now
51 °F

Overcast.


Feels Like: 49 °F
Forecast: 45 / 53 °F
Wind: 7 mph from North

Location: Ualand-Bjuland

Current Time: May 30, 2015 at 2:48:04 PM

Latest Report: May 30, 2015 at 2:00 PM


Visibility: 47 mi

Pressure: 29.57 "Hg

Humidity: 61%

Dew point: 38 °F

Location of EgersundLocation

Historic Weather in Egersund — Graph

°F

Egersund temperature yesterday

Maximum temperature yesterday: 51 °F (at 12:00 PM)
Minimum temperature yesterday: 40 °F (at 6:00 AM)
Average temperature yesterday: 46 °F

Past Weeks' High & Low Weather Summary

 TemperatureHumidityPressure
High57 °F (May 15, 1:00 PM)99% (May 18, 5:00 AM)30.12 "Hg (May 18, 5:00 AM)
Low33 °F (May 21, 6:00 AM)49% (May 15, 1:00 PM)29.21 "Hg (May 19, 6:00 AM)
Average46 °F80%29.83 "Hg
* Reported May 15 1:00 PM — May 30 1:00 PM, Egersund, Weather by CustomWeather, © 2015

Note: Actual official high and low records may vary slightly from our data, if they occured in-between our weather recording intervals... More about our weather records

Advertising

Egersund weather history for previous 24 hours

 ConditionsComfort  
Time TempWeatherWind HumidityBarometerVisibility
1:00 PM
Sat, May 30
53 °FCool.6 mph58%29.55 "HgN/A
12:00 PM51 °FCool.5 mph58%29.55 "HgN/A
11:00 AM51 °FCool.5 mph61%29.54 "HgN/A
10:00 AM48 °FCool.5 mph68%29.54 "HgN/A
9:00 AM47 °FCool.3 mph66%29.53 "HgN/A
8:00 AM44 °FScattered clouds.1 mph89%29.50 "Hg47 mi
7:00 AM42 °FQuite cool.1 mph94%29.53 "HgN/A
6:00 AM38 °FChilly.No wind98%29.54 "HgN/A
4:00 AM40 °FQuite cool.1 mph96%29.54 "HgN/A
3:00 AM41 °FQuite cool.2 mph95%29.55 "HgN/A
2:00 AM42 °FQuite cool.2 mph96%29.55 "HgN/A
1:00 AM42 °FQuite cool.1 mph96%29.57 "HgN/A
12:00 AM43 °FQuite cool.1 mph94%29.57 "HgN/A
11:00 PM
Fri, May 29
44 °FQuite cool.2 mph89%29.58 "HgN/A
10:00 PM44 °FQuite cool.3 mph92%29.59 "HgN/A
9:00 PM45 °FQuite cool.2 mph90%29.59 "HgN/A
8:00 PM47 °FSprinkles. Overcast.1 mph76%29.58 "Hg19 mi
7:00 PM49 °FCool.3 mph69%29.58 "HgN/A
6:00 PM48 °FCool.3 mph76%29.59 "HgN/A
5:00 PM48 °FCool.6 mph74%29.59 "HgN/A
4:00 PM49 °FCool.3 mph72%29.60 "HgN/A
3:00 PM49 °FCool.6 mph69%29.60 "HgN/A
2:00 PM49 °FOvercast.2 mph76%29.60 "Hg31 mi
Weather by CustomWeather, © 2015

See weather overviewHow to use our weather pages